Time,TemperatureF,DewpointF,PressureIn,WindDirection,WindDirectionDegrees,WindSpeedMPH,WindSpeedGustMPH,Humidity,HourlyPrecipIn,Conditions,Clouds,dailyrainin,SoftwareType,DateUTC
2013-03-02 00:00:00,36.0,33.0,29.69,ESE,112,2.6,5.8,89,0.00,,,0.01,Rainwise IP-100,2013-03-02 05:00:00,
2013-03-02 00:05:00,35.9,33.0,29.69,ESE,112,3.7,4.4,89,0.00,,,0.00,Rainwise IP-100,2013-03-02 05:05:00,
2013-03-02 00:10:00,35.9,33.0,29.69,ESE,112,3.3,4.4,89,0.00,,,0.00,Rainwise IP-100,2013-03-02 05:10:00,
2013-03-02 00:15:00,35.9,33.0,29.69,ESE,112,3.3,6.3,89,0.00,,,0.00,Rainwise IP-100,2013-03-02 05:15:00,
2013-03-02 00:20:00,36.0,32.0,29.69,ESE,112,2.8,6.8,88,0.00,,,0.00,Rainwise IP-100,2013-03-02 05:20:00,
2013-03-02 00:25:00,36.1,32.0,29.69,ESE,112,2.8,6.8,88,0.00,,,0.00,Rainwise IP-100,2013-03-02 05:25:00,
2013-03-02 00:30:00,36.1,32.0,29.69,ESE,112,2.6,5.1,87,0.00,,,0.00,Rainwise IP-100,2013-03-02 05:30:00,
2013-03-02 00:35:00,36.1,32.0,29.69,ESE,112,1.2,4.0,87,0.00,,,0.00,Rainwise IP-100,2013-03-02 05:35:00,
2013-03-02 00:40:00,36.1,32.0,29.69,ESE,112,1.9,3.7,87,0.00,,,0.00,Rainwise IP-100,2013-03-02 05:40:00,
2013-03-02 00:45:00,36.0,32.0,29.69,ESE,112,3.3,6.1,87,0.00,,,0.00,Rainwise IP-100,2013-03-02 05:45:00,
2013-03-02 00:50:00,36.0,32.0,29.69,ESE,112,2.8,6.1,87,0.00,,,0.00,Rainwise IP-100,2013-03-02 05:50:00,
2013-03-02 00:55:00,36.0,32.0,29.69,ESE,112,4.7,5.1,87,0.00,,,0.00,Rainwise IP-100,2013-03-02 05:55:00,
2013-03-02 01:00:00,36.0,32.0,29.69,ESE,112,0.0,6.5,86,0.00,,,0.00,Rainwise IP-100,2013-03-02 06:00:00,
2013-03-02 01:05:00,36.0,32.0,29.69,ESE,112,1.6,6.5,86,0.00,,,0.00,Rainwise IP-100,2013-03-02 06:05:00,
2013-03-02 01:10:00,36.0,32.0,29.69,ESE,112,3.0,5.8,86,0.00,,,0.00,Rainwise IP-100,2013-03-02 06:10:00,
2013-03-02 01:15:00,36.1,32.0,29.69,ESE,112,5.6,10.0,85,0.00,,,0.00,Rainwise IP-100,2013-03-02 06:15:00,
2013-03-02 01:20:00,36.1,32.0,29.69,SE,135,2.8,7.0,85,0.00,,,0.00,Rainwise IP-100,2013-03-02 06:20:00,
2013-03-02 01:25:00,36.1,32.0,29.69,ESE,112,4.0,6.3,84,0.00,,,0.00,Rainwise IP-100,2013-03-02 06:25:00,
2013-03-02 01:30:00,36.1,32.0,29.69,ESE,112,5.8,6.1,84,0.00,,,0.00,Rainwise IP-100,2013-03-02 06:30:00,
2013-03-02 01:35:00,36.1,31.0,29.68,ESE,112,1.2,8.4,83,0.00,,,0.00,Rainwise IP-100,2013-03-02 06:35:00,
2013-03-02 01:40:00,36.1,31.0,29.69,ESE,112,4.2,7.5,83,0.00,,,0.00,Rainwise IP-100,2013-03-02 06:40:00,
2013-03-02 01:45:00,36.1,31.0,29.68,ESE,112,4.0,6.5,83,0.00,,,0.00,Rainwise IP-100,2013-03-02 06:45:00,
2013-03-02 01:50:00,36.0,31.0,29.69,ESE,112,3.5,6.8,83,0.00,,,0.00,Rainwise IP-100,2013-03-02 06:50:00,
2013-03-02 01:55:00,36.0,31.0,29.68,ESE,112,3.5,5.8,83,0.00,,,0.00,Rainwise IP-100,2013-03-02 06:55:00,
2013-03-02 02:00:00,36.0,31.0,29.68,ESE,112,0.0,7.9,82,0.00,,,0.00,Rainwise IP-100,2013-03-02 07:00:00,
2013-03-02 02:05:00,36.0,31.0,29.68,ESE,112,4.7,7.9,82,0.00,,,0.00,Rainwise IP-100,2013-03-02 07:05:00,
2013-03-02 02:10:00,36.0,31.0,29.68,ESE,112,4.2,7.0,82,0.00,,,0.00,Rainwise IP-100,2013-03-02 07:10:00,
2013-03-02 02:15:00,36.1,31.0,29.68,ESE,112,6.3,7.0,82,0.00,,,0.00,Rainwise IP-100,2013-03-02 07:15:00,
2013-03-02 02:20:00,36.0,31.0,29.68,ESE,112,4.0,7.2,82,0.00,,,0.00,Rainwise IP-100,2013-03-02 07:20:00,
2013-03-02 02:25:00,36.0,31.0,29.68,ESE,112,5.4,7.2,82,0.00,,,0.00,Rainwise IP-100,2013-03-02 07:25:00,
2013-03-02 02:30:00,36.0,31.0,29.68,ESE,112,2.3,6.8,82,0.00,,,0.00,Rainwise IP-100,2013-03-02 07:30:00,
2013-03-02 02:35:00,36.0,31.0,29.68,ESE,112,5.4,8.9,82,0.00,,,0.00,Rainwise IP-100,2013-03-02 07:35:00,
2013-03-02 02:40:00,36.0,31.0,29.67,East,90,6.8,11.0,81,0.00,,,0.00,Rainwise IP-100,2013-03-02 07:40:00,
2013-03-02 02:44:00,36.0,31.0,29.68,ESE,112,4.9,11.0,81,0.00,,,0.00,Rainwise IP-100,2013-03-02 07:44:00,
2013-03-02 02:49:00,36.0,31.0,29.68,ENE,67,2.3,8.2,81,0.00,,,0.00,Rainwise IP-100,2013-03-02 07:49:00,
2013-03-02 02:54:00,36.0,31.0,29.68,SSE,157,1.9,8.9,81,0.00,,,0.00,Rainwise IP-100,2013-03-02 07:54:00,
2013-03-02 02:59:00,35.9,31.0,29.68,ESE,112,7.2,7.2,81,0.00,,,0.00,Rainwise IP-100,2013-03-02 07:59:00,
2013-03-02 03:04:00,35.9,31.0,29.68,ESE,112,5.6,9.1,81,0.00,,,0.00,Rainwise IP-100,2013-03-02 08:04:00,
2013-03-02 03:09:00,35.9,31.0,29.68,ESE,112,5.4,11.2,80,0.00,,,0.00,Rainwise IP-100,2013-03-02 08:09:00,
2013-03-02 03:14:00,35.9,31.0,29.68,SE,135,6.3,11.4,80,0.00,,,0.00,Rainwise IP-100,2013-03-02 08:14:00,
2013-03-02 03:19:00,35.9,31.0,29.68,ESE,112,8.6,9.3,80,0.00,,,0.00,Rainwise IP-100,2013-03-02 08:19:00,
2013-03-02 03:24:00,35.9,31.0,29.68,ENE,67,3.0,8.6,80,0.00,,,0.00,Rainwise IP-100,2013-03-02 08:24:00,
2013-03-02 03:29:00,35.9,31.0,29.68,SE,135,8.6,12.1,80,0.00,,,0.00,Rainwise IP-100,2013-03-02 08:29:00,
2013-03-02 03:34:00,35.9,31.0,29.68,ESE,112,6.1,11.4,80,0.00,,,0.00,Rainwise IP-100,2013-03-02 08:34:00,
2013-03-02 03:39:00,35.9,31.0,29.68,ESE,112,5.6,8.9,79,0.00,,,0.00,Rainwise IP-100,2013-03-02 08:39:00,
2013-03-02 03:44:00,35.8,31.0,29.69,SE,135,3.3,10.3,79,0.00,,,0.00,Rainwise IP-100,2013-03-02 08:44:00,
2013-03-02 03:49:00,35.7,31.0,29.68,ESE,112,3.3,7.5,79,0.00,,,0.00,Rainwise IP-100,2013-03-02 08:49:00,
2013-03-02 03:54:00,35.7,31.0,29.69,ESE,112,5.8,6.5,80,0.00,,,0.00,Rainwise IP-100,2013-03-02 08:54:00,
2013-03-02 03:59:00,35.7,31.0,29.69,ESE,112,0.0,7.2,80,0.00,,,0.00,Rainwise IP-100,2013-03-02 08:59:00,
2013-03-02 04:04:00,35.6,31.0,29.68,ESE,112,2.6,7.2,80,0.00,,,0.00,Rainwise IP-100,2013-03-02 09:04:00,
2013-03-02 04:09:00,35.6,31.0,29.69,SE,135,4.9,7.7,80,0.00,,,0.00,Rainwise IP-100,2013-03-02 09:09:00,
2013-03-02 04:14:00,35.6,31.0,29.69,ESE,112,3.5,8.9,80,0.00,,,0.00,Rainwise IP-100,2013-03-02 09:14:00,
2013-03-02 04:19:00,35.6,31.0,29.69,ESE,112,7.9,11.4,80,0.00,,,0.00,Rainwise IP-100,2013-03-02 09:19:00,
2013-03-02 04:24:00,35.7,31.0,29.69,ESE,112,5.1,11.2,80,0.00,,,0.00,Rainwise IP-100,2013-03-02 09:24:00,
2013-03-02 04:29:00,35.7,31.0,29.69,ESE,112,4.0,8.6,80,0.00,,,0.00,Rainwise IP-100,2013-03-02 09:29:00,
2013-03-02 04:34:00,35.6,31.0,29.69,SE,135,3.3,6.5,80,0.00,,,0.00,Rainwise IP-100,2013-03-02 09:34:00,
2013-03-02 04:39:00,35.6,31.0,29.69,SE,135,0.0,8.6,80,0.00,,,0.00,Rainwise IP-100,2013-03-02 09:39:00,
2013-03-02 04:44:00,35.6,31.0,29.69,ESE,112,6.8,10.3,79,0.00,,,0.00,Rainwise IP-100,2013-03-02 09:44:00,
2013-03-02 04:49:00,35.6,31.0,29.69,ESE,112,7.0,8.6,79,0.00,,,0.00,Rainwise IP-100,2013-03-02 09:49:00,
2013-03-02 04:54:00,35.6,31.0,29.69,ESE,112,6.5,10.3,79,0.00,,,0.00,Rainwise IP-100,2013-03-02 09:54:00,
2013-03-02 04:59:00,35.5,31.0,29.69,ESE,112,5.4,10.3,79,0.00,,,0.00,Rainwise IP-100,2013-03-02 09:59:00,
2013-03-02 05:04:00,35.5,31.0,29.69,ESE,112,5.4,7.9,79,0.00,,,0.00,Rainwise IP-100,2013-03-02 10:04:00,
2013-03-02 05:09:00,35.5,31.0,29.69,ESE,112,6.5,11.0,79,0.00,,,0.00,Rainwise IP-100,2013-03-02 10:09:00,
2013-03-02 05:14:00,35.5,31.0,29.69,ESE,112,7.5,7.5,79,0.00,,,0.00,Rainwise IP-100,2013-03-02 10:14:00,
2013-03-02 05:19:00,35.4,29.0,29.69,ESE,112,4.9,9.8,79,0.00,,,0.00,Rainwise IP-100,2013-03-02 10:19:00,
2013-03-02 05:24:00,35.4,29.0,29.69,ESE,112,7.7,8.4,79,0.00,,,0.00,Rainwise IP-100,2013-03-02 10:24:00,
2013-03-02 05:29:00,35.4,29.0,29.69,ESE,112,5.1,12.4,79,0.00,,,0.00,Rainwise IP-100,2013-03-02 10:29:00,
2013-03-02 05:34:00,35.4,29.0,29.69,SE,135,4.2,6.8,78,0.00,,,0.00,Rainwise IP-100,2013-03-02 10:34:00,
2013-03-02 05:39:00,35.3,29.0,29.69,SSE,157,2.8,9.8,78,0.00,,,0.00,Rainwise IP-100,2013-03-02 10:39:00,
2013-03-02 05:44:00,35.3,29.0,29.69,ESE,112,3.3,8.2,78,0.00,,,0.00,Rainwise IP-100,2013-03-02 10:44:00,
2013-03-02 05:49:00,35.2,29.0,29.69,ESE,112,3.7,6.3,78,0.00,,,0.00,Rainwise IP-100,2013-03-02 10:49:00,
2013-03-02 05:54:00,35.2,29.0,29.69,ESE,112,4.9,5.8,78,0.00,,,0.00,Rainwise IP-100,2013-03-02 10:54:00,
2013-03-02 05:59:00,35.2,29.0,29.69,ESE,112,5.1,8.2,79,0.00,,,0.00,Rainwise IP-100,2013-03-02 10:59:00,
2013-03-02 06:04:00,35.1,29.0,29.69,ESE,112,6.1,8.9,79,0.00,,,0.00,Rainwise IP-100,2013-03-02 11:04:00,
2013-03-02 06:09:00,35.1,29.0,29.69,ESE,112,4.4,7.2,79,0.00,,,0.00,Rainwise IP-100,2013-03-02 11:09:00,
2013-03-02 06:14:00,35.0,29.0,29.69,SE,135,3.0,8.6,79,0.00,,,0.00,Rainwise IP-100,2013-03-02 11:14:00,
2013-03-02 06:19:00,35.0,29.0,29.69,ESE,112,3.3,5.6,79,0.00,,,0.00,Rainwise IP-100,2013-03-02 11:19:00,
2013-03-02 06:24:00,35.0,29.0,29.69,ESE,112,4.0,9.3,79,0.00,,,0.00,Rainwise IP-100,2013-03-02 11:24:00,
2013-03-02 06:29:00,34.9,29.0,29.69,ESE,112,0.0,7.5,79,0.00,,,0.00,Rainwise IP-100,2013-03-02 11:29:00,
2013-03-02 06:34:00,34.9,29.0,29.69,ESE,112,3.5,7.9,79,0.00,,,0.00,Rainwise IP-100,2013-03-02 11:34:00,
2013-03-02 06:39:00,34.9,29.0,29.69,ESE,112,7.0,7.0,79,0.00,,,0.00,Rainwise IP-100,2013-03-02 11:39:00,
2013-03-02 06:44:00,34.8,29.0,29.69,ESE,112,2.6,8.4,79,0.00,,,0.00,Rainwise IP-100,2013-03-02 11:44:00,
2013-03-02 06:49:00,34.9,29.0,29.70,SE,135,3.5,7.5,79,0.00,,,0.00,Rainwise IP-100,2013-03-02 11:49:00,
2013-03-02 06:54:00,35.0,29.0,29.70,ESE,112,3.3,7.5,79,0.00,,,0.00,Rainwise IP-100,2013-03-02 11:54:00,
2013-03-02 06:59:00,35.0,29.0,29.70,East,90,5.1,7.0,79,0.00,,,0.00,Rainwise IP-100,2013-03-02 11:59:00,
2013-03-02 07:04:00,35.0,29.0,29.70,East,90,1.2,6.5,79,0.00,,,0.00,Rainwise IP-100,2013-03-02 12:04:00,
2013-03-02 07:09:00,35.1,29.0,29.70,ESE,112,5.4,10.3,79,0.00,,,0.00,Rainwise IP-100,2013-03-02 12:09:00,
2013-03-02 07:14:00,35.2,29.0,29.70,ESE,112,7.2,9.1,79,0.00,,,0.00,Rainwise IP-100,2013-03-02 12:14:00,
2013-03-02 07:19:00,35.2,29.0,29.70,ESE,112,4.4,9.6,79,0.00,,,0.00,Rainwise IP-100,2013-03-02 12:19:00,
2013-03-02 07:24:00,35.2,29.0,29.70,East,90,2.1,12.6,79,0.00,,,0.00,Rainwise IP-100,2013-03-02 12:24:00,
2013-03-02 07:29:00,35.3,29.0,29.71,ESE,112,3.3,8.9,78,0.00,,,0.00,Rainwise IP-100,2013-03-02 12:29:00,
2013-03-02 07:34:00,35.3,29.0,29.71,ESE,112,9.8,9.8,78,0.00,,,0.00,Rainwise IP-100,2013-03-02 12:34:00,
2013-03-02 07:39:00,35.3,29.0,29.71,SE,135,4.2,12.4,78,0.00,,,0.00,Rainwise IP-100,2013-03-02 12:39:00,
2013-03-02 07:44:00,35.4,29.0,29.70,ESE,112,6.8,13.1,78,0.00,,,0.00,Rainwise IP-100,2013-03-02 12:44:00,
2013-03-02 07:49:00,35.5,29.0,29.70,ESE,112,3.7,14.9,77,0.00,,,0.00,Rainwise IP-100,2013-03-02 12:49:00,
2013-03-02 07:54:00,35.6,29.0,29.70,ESE,112,11.0,14.5,77,0.00,,,0.00,Rainwise IP-100,2013-03-02 12:54:00,
2013-03-02 07:59:00,35.8,29.0,29.71,ESE,112,8.2,13.5,77,0.00,,,0.00,Rainwise IP-100,2013-03-02 12:59:00,
2013-03-02 08:04:00,36.0,29.0,29.71,ESE,112,4.7,11.4,77,0.00,,,0.00,Rainwise IP-100,2013-03-02 13:04:00,
2013-03-02 08:09:00,36.1,29.0,29.71,ENE,67,3.0,11.4,76,0.00,,,0.00,Rainwise IP-100,2013-03-02 13:09:00,
2013-03-02 08:14:00,36.2,29.0,29.71,SE,135,10.0,11.7,76,0.00,,,0.00,Rainwise IP-100,2013-03-02 13:14:00,
2013-03-02 08:19:00,36.3,29.0,29.71,ESE,112,5.1,10.0,76,0.00,,,0.00,Rainwise IP-100,2013-03-02 13:19:00,
2013-03-02 08:24:00,36.4,29.0,29.71,ESE,112,5.8,8.2,76,0.00,,,0.00,Rainwise IP-100,2013-03-02 13:24:00,
2013-03-02 08:29:00,36.4,29.0,29.71,ESE,112,5.1,11.2,76,0.00,,,0.00,Rainwise IP-100,2013-03-02 13:29:00,
2013-03-02 08:34:00,36.4,29.0,29.71,ESE,112,6.1,12.1,75,0.00,,,0.00,Rainwise IP-100,2013-03-02 13:34:00,
2013-03-02 08:39:00,36.3,29.0,29.71,ESE,112,9.1,11.7,75,0.00,,,0.00,Rainwise IP-100,2013-03-02 13:39:00,
2013-03-02 08:44:00,36.3,29.0,29.70,ESE,112,6.8,12.6,75,0.00,,,0.00,Rainwise IP-100,2013-03-02 13:44:00,
2013-03-02 08:49:00,36.2,29.0,29.70,ESE,112,10.3,16.3,75,0.00,,,0.00,Rainwise IP-100,2013-03-02 13:49:00,
2013-03-02 08:54:00,36.0,29.0,29.70,ESE,112,7.7,12.1,75,0.00,,,0.00,Rainwise IP-100,2013-03-02 13:54:00,
2013-03-02 08:59:00,36.1,29.0,29.70,ESE,112,5.4,13.5,74,0.00,,,0.00,Rainwise IP-100,2013-03-02 13:59:00,
2013-03-02 09:04:00,36.3,29.0,29.70,SSE,157,3.3,13.8,74,0.00,,,0.00,Rainwise IP-100,2013-03-02 14:04:00,
2013-03-02 09:09:00,36.6,29.0,29.70,SE,135,3.3,14.7,74,0.00,,,0.00,Rainwise IP-100,2013-03-02 14:09:00,
2013-03-02 09:14:00,36.9,29.0,29.70,ESE,112,9.8,11.4,73,0.00,,,0.00,Rainwise IP-100,2013-03-02 14:14:00,
2013-03-02 09:19:00,37.0,29.0,29.70,ESE,112,9.3,14.0,72,0.00,,,0.00,Rainwise IP-100,2013-03-02 14:19:00,
2013-03-02 09:24:00,37.0,29.0,29.70,ESE,112,1.4,13.3,72,0.00,,,0.00,Rainwise IP-100,2013-03-02 14:24:00,
2013-03-02 09:29:00,37.5,31.0,29.70,SE,135,8.9,9.3,72,0.00,,,0.00,Rainwise IP-100,2013-03-02 14:29:00,
2013-03-02 09:34:00,38.2,29.0,29.70,ESE,112,3.0,14.5,71,0.00,,,0.00,Rainwise IP-100,2013-03-02 14:34:00,
2013-03-02 09:39:00,38.1,29.0,29.70,ESE,112,4.4,12.6,70,0.00,,,0.00,Rainwise IP-100,2013-03-02 14:39:00,
2013-03-02 09:44:00,38.0,29.0,29.70,SE,135,10.7,10.7,70,0.00,,,0.00,Rainwise IP-100,2013-03-02 14:44:00,
2013-03-02 09:49:00,38.3,29.0,29.69,ESE,112,5.6,17.0,70,0.00,,,0.00,Rainwise IP-100,2013-03-02 14:49:00,
2013-03-02 09:54:00,38.6,31.0,29.70,ESE,112,4.4,10.3,69,0.00,,,0.00,Rainwise IP-100,2013-03-02 14:54:00,
2013-03-02 09:59:00,38.8,29.0,29.69,ESE,112,12.4,14.0,68,0.00,,,0.00,Rainwise IP-100,2013-03-02 14:59:00,
2013-03-02 10:04:00,38.6,29.0,29.69,ESE,112,8.9,14.2,68,0.00,,,0.00,Rainwise IP-100,2013-03-02 15:04:00,
2013-03-02 10:09:00,38.6,29.0,29.69,ESE,112,8.6,14.9,68,0.00,,,0.00,Rainwise IP-100,2013-03-02 15:09:00,
2013-03-02 10:14:00,38.9,29.0,29.69,East,90,4.9,11.9,68,0.00,,,0.00,Rainwise IP-100,2013-03-02 15:14:00,
2013-03-02 10:19:00,39.0,29.0,29.69,ESE,112,7.0,12.8,67,0.00,,,0.00,Rainwise IP-100,2013-03-02 15:19:00,
2013-03-02 10:24:00,39.3,29.0,29.69,SE,135,5.4,13.8,66,0.00,,,0.00,Rainwise IP-100,2013-03-02 15:24:00,
2013-03-02 10:29:00,39.3,29.0,29.69,ESE,112,2.8,14.2,66,0.00,,,0.00,Rainwise IP-100,2013-03-02 15:29:00,
2013-03-02 10:34:00,39.3,29.0,29.69,East,90,1.4,12.8,66,0.00,,,0.00,Rainwise IP-100,2013-03-02 15:34:00,
2013-03-02 10:39:00,39.8,31.0,29.69,SE,135,7.0,13.3,66,0.00,,,0.00,Rainwise IP-100,2013-03-02 15:39:00,
2013-03-02 10:44:00,40.0,29.0,29.69,ESE,112,6.5,13.3,65,0.00,,,0.00,Rainwise IP-100,2013-03-02 15:44:00,
2013-03-02 10:49:00,40.0,29.0,29.68,ESE,112,5.4,9.6,65,0.00,,,0.00,Rainwise IP-100,2013-03-02 15:49:00,
2013-03-02 10:54:00,40.1,29.0,29.69,ESE,112,2.8,13.3,65,0.00,,,0.00,Rainwise IP-100,2013-03-02 15:54:00,
2013-03-02 10:59:00,40.5,31.0,29.69,ESE,112,8.9,8.9,65,0.00,,,0.00,Rainwise IP-100,2013-03-02 15:59:00,
2013-03-02 11:04:00,40.9,31.0,29.69,ESE,112,7.2,9.3,64,0.00,,,0.00,Rainwise IP-100,2013-03-02 16:04:00,
2013-03-02 11:10:00,41.2,29.0,29.69,ESE,112,5.1,10.3,63,0.00,,,0.00,Rainwise IP-100,2013-03-02 16:10:00,
2013-03-02 11:15:00,41.5,31.0,29.68,SE,135,8.6,8.6,62,0.00,,,0.00,Rainwise IP-100,2013-03-02 16:15:00,
2013-03-02 11:20:00,41.5,31.0,29.69,ESE,112,1.2,11.0,62,0.00,,,0.00,Rainwise IP-100,2013-03-02 16:20:00,
2013-03-02 11:25:00,41.4,29.0,29.69,ESE,112,5.4,9.3,62,0.00,,,0.00,Rainwise IP-100,2013-03-02 16:25:00,
2013-03-02 11:30:00,41.5,31.0,29.69,SE,135,0.0,9.6,62,0.00,,,0.00,Rainwise IP-100,2013-03-02 16:30:00,
2013-03-02 11:35:00,42.0,31.0,29.69,SSW,202,1.2,4.4,62,0.00,,,0.00,Rainwise IP-100,2013-03-02 16:35:00,
2013-03-02 11:40:00,42.2,31.0,29.68,SSW,202,1.4,7.7,62,0.00,,,0.00,Rainwise IP-100,2013-03-02 16:40:00,
2013-03-02 11:45:00,41.9,29.0,29.69,WSW,247,4.4,7.2,61,0.00,,,0.00,Rainwise IP-100,2013-03-02 16:45:00,
2013-03-02 11:50:00,41.9,31.0,29.68,ESE,112,2.6,5.6,62,0.00,,,0.00,Rainwise IP-100,2013-03-02 16:50:00,
2013-03-02 11:55:00,41.9,29.0,29.68,East,90,0.0,4.9,61,0.00,,,0.00,Rainwise IP-100,2013-03-02 16:55:00,
2013-03-02 12:00:00,41.8,31.0,29.68,NNE,22,3.3,6.8,62,0.00,,,0.00,Rainwise IP-100,2013-03-02 17:00:00,
2013-03-02 12:05:00,41.7,31.0,29.68,West,270,8.6,8.6,64,0.00,,,0.00,Rainwise IP-100,2013-03-02 17:05:00,
2013-03-02 12:10:00,40.8,31.0,29.68,WNW,292,1.9,10.3,65,0.00,,,0.00,Rainwise IP-100,2013-03-02 17:10:00,
2013-03-02 12:15:00,39.9,31.0,29.67,WNW,292,2.3,11.4,67,0.00,,,0.00,Rainwise IP-100,2013-03-02 17:15:00,
2013-03-02 12:20:00,39.7,31.0,29.68,WNW,292,6.3,10.5,68,0.00,,,0.00,Rainwise IP-100,2013-03-02 17:20:00,
2013-03-02 12:25:00,39.5,31.0,29.67,WNW,292,1.4,9.3,69,0.00,,,0.00,Rainwise IP-100,2013-03-02 17:25:00,
2013-03-02 12:30:00,39.5,31.0,29.67,WNW,292,7.2,10.3,69,0.00,,,0.00,Rainwise IP-100,2013-03-02 17:30:00,
2013-03-02 12:35:00,39.3,31.0,29.67,WNW,292,6.1,9.6,70,0.00,,,0.00,Rainwise IP-100,2013-03-02 17:35:00,
2013-03-02 12:40:00,39.4,31.0,29.67,WNW,292,2.8,9.1,70,0.00,,,0.00,Rainwise IP-100,2013-03-02 17:40:00,
2013-03-02 12:45:00,39.7,32.0,29.68,WNW,292,3.3,8.6,70,0.00,,,0.00,Rainwise IP-100,2013-03-02 17:45:00,
2013-03-02 12:50:00,39.9,32.0,29.67,WNW,292,5.6,8.2,70,0.00,,,0.00,Rainwise IP-100,2013-03-02 17:50:00,
2013-03-02 12:55:00,39.8,32.0,29.67,SSE,157,5.1,10.3,71,0.00,,,0.00,Rainwise IP-100,2013-03-02 17:55:00,